Starlink 32223

operational
NORAD ID: 60373 Int'l Des: 2024-138 Owner: SPXS Country: US Constellation: starlink
LEOCIRCULAR

About Starlink 32223

Description loading...

Live Position

Loading 3D Globe...

Upcoming Passes

Altitude History

Altitude vs Time

uPlot chart will show altitude changes over time

Two-Line Element Set

1 60373U 24138U 25306.37243731 -.00003251 00000-0 -97735-4 0 9991
2 60373 53.1589 181.0569 0001505 85.8273 274.2900 15.30183828 71030
Epoch: Nov 2, 2025 • Age: 23 hours

Current Status

Altitude 478.4 km
Velocity 7.63 km/s
Sub-Earth Point -10.71°S, 0.34°W
Launch Date Aug 4, 2024
Age 1.2 years
Type internet

Technical Details

Classification Payload
Mass 730.00 kg
Dry Mass 700.00 kg
Total Mass 730.00 kg
Length 0.30 m
Diameter 4.10 m
Span 29.00 m
Shape Box + pan
Manufacturer SPXS
Bus Type Starlink V2M
Phase Status In Orbit
Owner/State SPXS/US

Large Constellations

Loading constellations...